Home   Weather   Lowell   Past weeks

Flag for USA Past Weather in Lowell, Massachusetts, USA — Yesterday and Last 2 Weeks

Now
56 °F

Fog.


Feels Like: 55 °F
Forecast: 56 / 66 °F
Wind: 6 mph from North

Location: Hanscom Field

Current Time: Jul 25, 2017 at 2:52:11 am

Latest Report: Jul 25, 2017 at 1:56 am


Visibility: 5 mi

Pressure: 30.02 "Hg

Humidity: 93%

Dew Point: 54 °F

Location of LowellLocation

Past Weather in Lowell — Graph

°F

Lowell Temperature Yesterday

Maximum temperature yesterday: 63 °F (at 5:56 am)
Minimum temperature yesterday: 56 °F (at 12:56 pm)
Average temperature yesterday: 59 °F

High & Low Weather Summary for the Past Weeks

 TemperatureHumidityPressure
High90 °F (Jul 19, 1:56 pm)93% (Jul 12, 7:56 pm)30.16 "Hg (Jul 12, 7:56 pm)
Low56 °F (Jul 24, 12:56 pm)31% (Jul 10, 2:56 pm)29.78 "Hg (Jul 23, 2:56 am)
Average71 °F72%29.98 "Hg
* Reported Jul 10 12:56 am — Jul 25 12:56 am, Lowell. Weather by CustomWeather, © 2017

Note: Actual official high and low records may vary slightly from our data, if they occured in-between our weather recording intervals... More about our weather records

Advertising

Lowell Weather History for the Previous 24 Hours

Scroll right to see more
 ConditionsComfort  
Time TempWeatherWind HumidityBarometerVisibility
12:56 am
Tue, Jul 25
56 °FFog.7 mph93%30.03 "Hg4 mi
12:25 am56 °FFog.8 mph93%29.99 "Hg5 mi
12:03 am56 °FOvercast.7 mph93%29.99 "Hg10 mi
10:56 pm
Mon, Jul 24
57 °FFog.12 mph90%29.99 "Hg4 mi
9:56 pm57 °FFog.9 mph93%29.98 "Hg5 mi
8:56 pm57 °FFog.8 mph93%29.98 "Hg5 mi
7:56 pm58 °FLight rain. Fog.9 mph93%29.96 "Hg5 mi
7:03 pm58 °FFog.13 mph90%29.89 "Hg4 mi
5:56 pm57 °FLight rain. Fog.10 mph93%29.94 "Hg2 mi
4:56 pm57 °FLight rain. Fog.13 mph90%29.93 "Hg2 mi
4:23 pm57 °FLight rain. Fog.14 mph93%29.89 "Hg2 mi
4:06 pm57 °FLight rain. Fog.13 mph93%29.90 "Hg3 mi
3:15 pm57 °FRain. Fog.14 mph93%29.90 "Hg2 mi
2:58 pm57 °FRain. Fog.10 mph93%29.90 "Hg2 mi
2:03 pm56 °FHeavy rain. Fog.8 mph93%29.91 "Hg2 mi
1:03 pm56 °FRain. Fog.16 mph93%29.90 "Hg1 mi
12:56 pm56 °FRain. Fog.14 mph93%29.94 "Hg3 mi
12:39 pm57 °FRain. Fog.17 mph90%29.91 "Hg3 mi
12:29 pm57 °FRain. Fog.16 mph90%29.91 "Hg2 mi
12:03 pm58 °FHeavy rain. Fog.9 mph93%29.93 "Hg1 mi
11:15 am59 °FLight rain. Fog.12 mph90%29.94 "Hg3 mi
10:56 am60 °FLight rain. Fog.14 mph86%29.98 "Hg6 mi
9:56 am60 °FLight rain. Mostly cloudy.7 mph90%29.96 "Hg8 mi
8:56 am61 °FRain. Fog.9 mph87%29.97 "Hg4 mi
7:56 am62 °FLight rain. Mostly cloudy.9 mph83%29.96 "Hg10 mi
6:56 am63 °FLight rain. Overcast.6 mph81%29.96 "Hg10 mi
5:56 am63 °FLight rain. Overcast.5 mph78%29.95 "Hg10 mi
4:56 am62 °FPartly cloudy.No wind78%29.95 "Hg10 mi
3:56 am61 °FClear.No wind81%29.95 "Hg10 mi
2:56 am61 °FPassing clouds.No wind78%29.96 "Hg10 mi
Weather by CustomWeather, © 2017

See weather overviewHow to use our weather pages